Terug naar catalogus

ARIANE 2 DEB

ActiefGTO
NORAD 27033·DEBRIS·🇫🇷 France

Gelanceerd Jan 27, 1989 vanaf Guiana Space Centre

Loading…

TLE

VerouderdSource: Space-Track

Epoch: Sep 13, 2026, 10:45 UTC

1 27033U 89006N   26256.44843236  .00000717  00000-0  61334-2 0  9997
2 27033   8.7411 339.9090 7113176 264.6330  55.6702  2.34854782212093

Volg ARIANE 2 DEB in realtime met AllMySat

Download on the App Store